sat.trackr.live / text

‹ back to catalog

STARLINK-32075

NORAD 60345 · 2024-136S

PAYLOAD ACTIVE UNKNOWN

§ Identity

Operator
Country
US
Launch date
2024-08-02
Launch site
AFETR
Launch vehicle
Mass (kg)
RCS (m²)

Purposes: comms

External: N2YO · Heavens-Above · Gunter

§ Orbital elements

Epoch: 2026-05-25T02:05:04.555392Z

Period
94.11 min
Inclination
53.1610°
Eccentricity
0.0001318
Mean motion
15.30194916 rev/d
Perigee alt
474.3 km
Apogee alt
476.1 km
Semi-major
6,853.4 km
B*
4.6464e-6
RAAN
80.6377°
Arg perigee
91.6122°
Mean anomaly
268.5030°
Rev number
10,136

§ Raw data

STARLINK-320751 60345U 24136S   26145.08685828 -.00000222  00000+0  46464-5 0  99922 60345  53.1610  80.6377 0001318  91.6122 268.5030 15.30194916101365

JSON: /api/v1/satellites/60345 · /tle

For live sub-satellite position, see the globe view (requires WebGL).

§ Visibility from observer

Set your observer location to see the next 7 days of passes ≥ 10°. The values pass through the URL so the page stays shareable.

No JS? Fill the form by hand. The geolocation button needs JavaScript.